KAL1302 RKPC-RKSS

Flight info

Callsign KAL1302
Flight time 0h 50m
Altitude 25000
Route KAMIT1W KAMIT Y722 OLMEN OLMEN2T
Aircraft A321/M-SDE3FGHIRWY/LB1

Departure

Time 2026-05-01 11:58
Airport Jeju International Airport (RKPC)

Arrival

Time 2026-05-01 12:49
Airport Gimpo International Airport (RKSS)
Time Latitude Longitude Altitude Speed Heading
2026-05-01 11:28 33.50708 126.49183 91 ft 0 kts 156°
2026-05-01 11:48 33.50721 126.49176 90 ft 4 kts 156°
2026-05-01 11:48 33.50746 126.49163 90 ft 4 kts 156°
2026-05-01 11:48 33.50767 126.49151 90 ft 4 kts 134°
2026-05-01 11:48 33.50778 126.49126 93 ft 4 kts 87°
2026-05-01 11:49 33.50771 126.49095 90 ft 4 kts 64°
2026-05-01 11:49 33.50760 126.49071 90 ft 1 kts 58°
2026-05-01 11:49 33.50760 126.49070 92 ft 0 kts 58°
2026-05-01 11:53 33.50769 126.49088 90 ft 6 kts 58°
2026-05-01 11:53 33.50784 126.49118 89 ft 4 kts 58°
2026-05-01 11:54 33.50807 126.49160 89 ft 6 kts 58°
2026-05-01 11:54 33.50840 126.49225 92 ft 10 kts 58°
2026-05-01 11:54 33.50875 126.49290 91 ft 10 kts 58°
2026-05-01 11:54 33.50907 126.49354 92 ft 8 kts 59°
2026-05-01 11:55 33.50934 126.49410 93 ft 9 kts 59°
2026-05-01 11:55 33.50964 126.49469 93 ft 8 kts 59°
2026-05-01 11:55 33.51004 126.49544 92 ft 13 kts 57°
2026-05-01 11:55 33.51068 126.49614 91 ft 12 kts 25°
2026-05-01 11:56 33.51155 126.49654 91 ft 14 kts 19°
2026-05-01 11:56 33.51251 126.49700 88 ft 15 kts 34°
2026-05-01 11:56 33.51318 126.49798 86 ft 15 kts 49°
2026-05-01 11:56 33.51408 126.49800 86 ft 14 kts 329°
2026-05-01 11:57 33.51457 126.49719 86 ft 11 kts 270°
2026-05-01 11:57 33.51441 126.49669 87 ft 9 kts 240°
2026-05-01 11:57 33.51436 126.49658 90 ft 3 kts 238°
2026-05-01 11:57 33.51289 126.49376 88 ft 86 kts 239°
2026-05-01 11:58 33.50831 126.48486 94 ft 161 kts 238°
2026-05-01 11:58 33.50175 126.47218 526 ft 188 kts 237°
2026-05-01 11:58 33.48770 126.44511 2028 ft 199 kts 238°
2026-05-01 11:59 33.48003 126.43012 2271 ft 223 kts 239°
2026-05-01 11:59 33.47153 126.41350 2644 ft 243 kts 241°
2026-05-01 11:59 33.46256 126.39603 3354 ft 249 kts 243°
2026-05-01 12:00 33.45361 126.35769 4792 ft 246 kts 291°
2026-05-01 12:00 33.46347 126.34128 5491 ft 249 kts 324°
2026-05-01 12:00 33.49558 126.32436 6976 ft 256 kts 337°
2026-05-01 12:01 33.51212 126.31619 7720 ft 258 kts 337°
2026-05-01 12:01 33.52873 126.30782 8451 ft 261 kts 337°
2026-05-01 12:01 33.54556 126.29929 9141 ft 264 kts 338°
2026-05-01 12:01 33.56267 126.29061 9820 ft 268 kts 338°
2026-05-01 12:02 33.58004 126.28179 10282 ft 279 kts 337°
2026-05-01 12:02 33.59867 126.27227 10432 ft 302 kts 337°
2026-05-01 12:02 33.61871 126.26204 10552 ft 324 kts 337°
2026-05-01 12:02 33.64036 126.25300 10929 ft 334 kts 349°
2026-05-01 12:03 33.66375 126.25229 11522 ft 341 kts
2026-05-01 12:03 33.68644 126.26110 12178 ft 349 kts 25°
2026-05-01 12:03 33.70579 126.27917 12804 ft 360 kts 44°
2026-05-01 12:03 33.72061 126.30392 13370 ft 369 kts 51°
2026-05-01 12:04 33.73488 126.32976 13923 ft 373 kts 51°
2026-05-01 12:04 33.74927 126.35599 14468 ft 378 kts 51°
2026-05-01 12:04 33.76384 126.38256 14995 ft 383 kts 50°
2026-05-01 12:04 33.77866 126.40940 15496 ft 388 kts 50°
2026-05-01 12:05 33.79369 126.43652 15996 ft 392 kts 50°
2026-05-01 12:05 33.82432 126.49160 16940 ft 401 kts 50°
2026-05-01 12:05 33.83986 126.51965 17398 ft 405 kts 49°
2026-05-01 12:06 33.85552 126.54796 17836 ft 409 kts 49°
2026-05-01 12:06 33.86600 126.56692 18113 ft 412 kts 49°
2026-05-01 12:06 33.88194 126.59581 18532 ft 416 kts 49°
2026-05-01 12:06 33.89800 126.62493 18944 ft 420 kts 49°
2026-05-01 12:07 33.91428 126.65438 19358 ft 424 kts 49°
2026-05-01 12:07 33.93107 126.68362 19756 ft 423 kts 43°
2026-05-01 12:07 33.95130 126.70880 20133 ft 415 kts 31°
2026-05-01 12:07 33.97490 126.72813 20505 ft 406 kts 19°
2026-05-01 12:08 34.00072 126.74111 20892 ft 398 kts
2026-05-01 12:08 34.02768 126.74768 21204 ft 394 kts 359°
2026-05-01 12:08 34.05509 126.75038 21540 ft 397 kts 358°
2026-05-01 12:08 34.08271 126.75316 21922 ft 400 kts 359°
2026-05-01 12:09 34.11054 126.75609 22305 ft 402 kts 359°
2026-05-01 12:09 34.13855 126.75912 22698 ft 405 kts 359°
2026-05-01 12:09 34.16669 126.76218 23074 ft 407 kts 359°
2026-05-01 12:09 34.19497 126.76522 23432 ft 409 kts 359°
2026-05-01 12:10 34.22309 126.76822 23775 ft 411 kts 358°
2026-05-01 12:10 34.28038 126.77432 24467 ft 415 kts 358°
2026-05-01 12:10 34.30926 126.77738 24801 ft 418 kts 358°
2026-05-01 12:11 34.36722 126.78358 25029 ft 417 kts 358°
2026-05-01 12:11 34.39609 126.78669 25026 ft 416 kts 358°
2026-05-01 12:11 34.42486 126.78977 25026 ft 415 kts 358°
2026-05-01 12:12 34.45361 126.79280 25016 ft 415 kts 358°
2026-05-01 12:12 34.48239 126.79583 25018 ft 415 kts 358°
2026-05-01 12:12 34.51119 126.79886 25016 ft 415 kts 358°
2026-05-01 12:12 34.53993 126.80197 25019 ft 415 kts 358°
2026-05-01 12:13 34.56866 126.80508 25013 ft 414 kts 358°
2026-05-01 12:13 34.59739 126.80814 25020 ft 415 kts 358°
2026-05-01 12:13 34.62612 126.81119 25021 ft 415 kts 358°
2026-05-01 12:13 34.65484 126.81423 25022 ft 414 kts 358°
2026-05-01 12:14 34.68358 126.81730 25019 ft 414 kts 358°
2026-05-01 12:14 34.71224 126.82039 25021 ft 414 kts 358°
2026-05-01 12:14 34.74092 126.82350 25016 ft 414 kts 358°
2026-05-01 12:14 34.76960 126.82660 25019 ft 413 kts 358°
2026-05-01 12:15 34.79786 126.82965 25020 ft 413 kts 358°
2026-05-01 12:15 34.82682 126.83275 25020 ft 412 kts 358°
2026-05-01 12:15 34.85509 126.83575 25022 ft 412 kts 358°
2026-05-01 12:15 34.88366 126.83878 25021 ft 412 kts 358°
2026-05-01 12:16 34.91220 126.84184 25021 ft 411 kts 358°
2026-05-01 12:16 34.94068 126.84493 25016 ft 411 kts 358°
2026-05-01 12:16 34.96918 126.84805 25002 ft 411 kts 358°
2026-05-01 12:16 34.99764 126.85118 25011 ft 411 kts 358°
2026-05-01 12:17 35.02614 126.85426 25006 ft 410 kts 358°
2026-05-01 12:17 35.05455 126.85730 25008 ft 410 kts 358°
2026-05-01 12:17 35.08298 126.86032 24999 ft 410 kts 358°
2026-05-01 12:17 35.11133 126.86338 25004 ft 409 kts 358°
2026-05-01 12:18 35.13972 126.86648 25006 ft 409 kts 358°
2026-05-01 12:18 35.16809 126.86957 25008 ft 409 kts 358°
2026-05-01 12:18 35.19642 126.87264 24999 ft 409 kts 358°
2026-05-01 12:18 35.22475 126.87571 25007 ft 409 kts 358°
2026-05-01 12:19 35.25311 126.87879 25010 ft 408 kts 358°
2026-05-01 12:19 35.28145 126.88189 25006 ft 408 kts 358°
2026-05-01 12:19 35.30937 126.88494 25015 ft 408 kts 358°
2026-05-01 12:19 35.33805 126.88805 25004 ft 408 kts 358°
2026-05-01 12:20 35.36629 126.89114 25006 ft 408 kts 358°
2026-05-01 12:20 35.39457 126.89426 25007 ft 408 kts 358°
2026-05-01 12:20 35.42285 126.89736 25010 ft 408 kts 358°
2026-05-01 12:20 35.45082 126.90041 25009 ft 408 kts 358°
2026-05-01 12:21 35.47904 126.90346 25007 ft 407 kts 358°
2026-05-01 12:21 35.50727 126.90649 25005 ft 407 kts 358°
2026-05-01 12:21 35.53552 126.90953 25004 ft 407 kts 358°
2026-05-01 12:21 35.56373 126.91261 25004 ft 407 kts 358°
2026-05-01 12:22 35.59197 126.91572 25001 ft 407 kts 358°
2026-05-01 12:22 35.62017 126.91886 24995 ft 407 kts 358°
2026-05-01 12:22 35.64841 126.92198 24997 ft 407 kts 358°
2026-05-01 12:22 35.67654 126.92507 25000 ft 407 kts 358°
2026-05-01 12:23 35.70469 126.92816 25001 ft 406 kts 358°
2026-05-01 12:23 35.73290 126.93124 25008 ft 406 kts 358°
2026-05-01 12:23 35.76100 126.93428 25003 ft 406 kts 358°
2026-05-01 12:23 35.78917 126.93734 24906 ft 405 kts 358°
2026-05-01 12:24 35.81721 126.94042 24653 ft 403 kts 358°
2026-05-01 12:24 35.84511 126.94352 24403 ft 401 kts 358°
2026-05-01 12:24 35.87285 126.94662 24153 ft 399 kts 358°
2026-05-01 12:24 35.90044 126.94972 23903 ft 397 kts 359°
2026-05-01 12:25 35.92794 126.95278 23651 ft 395 kts 359°
2026-05-01 12:25 35.98259 126.95878 23148 ft 392 kts 359°
2026-05-01 12:25 36.00970 126.96178 22893 ft 390 kts 359°
2026-05-01 12:26 36.03666 126.96476 22649 ft 388 kts 359°
2026-05-01 12:26 36.08993 126.97064 22151 ft 385 kts 359°
2026-05-01 12:26 36.11687 126.97363 21902 ft 384 kts 359°
2026-05-01 12:27 36.14344 126.97659 21650 ft 382 kts 359°
2026-05-01 12:27 36.19587 126.98247 21151 ft 380 kts 360°
2026-05-01 12:28 36.24831 126.98831 20648 ft 376 kts 360°
2026-05-01 12:28 36.27434 126.99117 20402 ft 375 kts 360°
2026-05-01 12:28 36.32622 126.99690 19899 ft 373 kts
2026-05-01 12:29 36.35199 126.99979 19649 ft 372 kts
2026-05-01 12:29 36.37771 127.00269 19399 ft 371 kts 360°
2026-05-01 12:29 36.42841 127.00959 18576 ft 370 kts 10°
2026-05-01 12:30 36.47754 127.02756 17395 ft 365 kts 11°
2026-05-01 12:30 36.50177 127.03643 16865 ft 361 kts 11°
2026-05-01 12:30 36.52578 127.04519 16333 ft 358 kts 11°
2026-05-01 12:31 36.54961 127.05377 15801 ft 355 kts 11°
2026-05-01 12:31 36.57327 127.06220 15288 ft 352 kts 11°
2026-05-01 12:31 36.59679 127.07049 14784 ft 350 kts 11°
2026-05-01 12:31 36.62010 127.07858 14261 ft 347 kts 11°
2026-05-01 12:32 36.64328 127.08655 13743 ft 344 kts 11°
2026-05-01 12:32 36.68927 127.10232 13010 ft 342 kts 11°
2026-05-01 12:32 36.71222 127.11006 13010 ft 343 kts 11°
2026-05-01 12:33 36.73522 127.11784 13013 ft 343 kts 11°
2026-05-01 12:33 36.75833 127.12564 13016 ft 342 kts 11°
2026-05-01 12:33 36.78104 127.13331 13010 ft 342 kts 11°
2026-05-01 12:33 36.80455 127.13815 12897 ft 334 kts 356°
2026-05-01 12:34 36.82721 127.13603 12362 ft 330 kts 351°
2026-05-01 12:34 36.84994 127.13282 11824 ft 328 kts 351°
2026-05-01 12:34 36.87252 127.12948 11276 ft 327 kts 351°
2026-05-01 12:34 36.89510 127.12616 10791 ft 326 kts 351°
2026-05-01 12:35 36.91760 127.12286 10316 ft 323 kts 351°
2026-05-01 12:35 36.93944 127.11973 10187 ft 310 kts 351°
2026-05-01 12:35 36.96044 127.11679 10064 ft 297 kts 351°
2026-05-01 12:35 36.98059 127.11405 9935 ft 286 kts 351°
2026-05-01 12:36 36.99996 127.11144 9811 ft 275 kts 351°
2026-05-01 12:36 37.01875 127.10895 9509 ft 270 kts 351°
2026-05-01 12:36 37.03738 127.10653 9123 ft 269 kts 351°
2026-05-01 12:36 37.05598 127.10414 8709 ft 269 kts 351°
2026-05-01 12:37 37.07461 127.10178 8300 ft 269 kts 351°
2026-05-01 12:37 37.09317 127.09946 8028 ft 266 kts 351°
2026-05-01 12:37 37.11170 127.09718 8020 ft 269 kts 351°
2026-05-01 12:37 37.13015 127.09494 8018 ft 260 kts 351°
2026-05-01 12:38 37.14758 127.09287 8020 ft 243 kts 351°
2026-05-01 12:38 37.16383 127.09100 8007 ft 234 kts 351°
2026-05-01 12:38 37.17992 127.08916 7628 ft 232 kts 351°
2026-05-01 12:38 37.19595 127.08732 7231 ft 231 kts 351°
2026-05-01 12:39 37.21188 127.08551 6826 ft 229 kts 351°
2026-05-01 12:39 37.22769 127.08374 6407 ft 227 kts 351°
2026-05-01 12:39 37.24343 127.08200 5992 ft 226 kts 351°
2026-05-01 12:39 37.25910 127.08035 5602 ft 225 kts 351°
2026-05-01 12:40 37.27467 127.07868 5193 ft 224 kts 351°
2026-05-01 12:40 37.29018 127.07707 5012 ft 224 kts 351°
2026-05-01 12:40 37.30585 127.07544 5016 ft 227 kts 351°
2026-05-01 12:40 37.32155 127.07340 5012 ft 223 kts 343°
2026-05-01 12:41 37.33498 127.06616 5005 ft 202 kts 322°
2026-05-01 12:41 37.34521 127.05443 5024 ft 198 kts 314°
2026-05-01 12:41 37.35429 127.04313 5013 ft 172 kts 314°
2026-05-01 12:41 37.36219 127.03330 4979 ft 150 kts 313°
2026-05-01 12:42 37.36932 127.02441 4865 ft 141 kts 313°
2026-05-01 12:42 37.37623 127.01581 4714 ft 139 kts 313°
2026-05-01 12:42 37.38312 127.00721 4537 ft 139 kts 313°
2026-05-01 12:42 37.38999 126.99864 4353 ft 139 kts 312°
2026-05-01 12:43 37.39684 126.99009 4172 ft 138 kts 312°
2026-05-01 12:43 37.40368 126.98156 3985 ft 138 kts 312°
2026-05-01 12:43 37.41054 126.97302 3806 ft 139 kts 312°
2026-05-01 12:43 37.41743 126.96442 3615 ft 140 kts 311°
2026-05-01 12:44 37.42432 126.95581 3435 ft 139 kts 311°
2026-05-01 12:44 37.43123 126.94719 3248 ft 140 kts 312°
2026-05-01 12:44 37.44523 126.92969 2868 ft 141 kts 311°
2026-05-01 12:45 37.45934 126.91207 2493 ft 144 kts 311°
2026-05-01 12:45 37.46646 126.90316 2306 ft 145 kts 311°
2026-05-01 12:45 37.47363 126.89420 2107 ft 146 kts 311°
2026-05-01 12:46 37.48089 126.88512 1903 ft 148 kts 311°
2026-05-01 12:46 37.48822 126.87595 1714 ft 149 kts 311°
2026-05-01 12:46 37.49556 126.86677 1516 ft 149 kts 312°
2026-05-01 12:46 37.50291 126.85756 1320 ft 149 kts 312°
2026-05-01 12:47 37.51028 126.84834 1117 ft 150 kts 313°
2026-05-01 12:47 37.51767 126.83908 923 ft 150 kts 313°
2026-05-01 12:47 37.52506 126.82982 724 ft 150 kts 313°
2026-05-01 12:47 37.53247 126.82061 538 ft 149 kts 313°
2026-05-01 12:48 37.53984 126.81141 326 ft 149 kts 314°
2026-05-01 12:48 37.54709 126.80224 154 ft 148 kts 313°
2026-05-01 12:48 37.55418 126.79332 60 ft 135 kts 313°
2026-05-01 12:48 37.55989 126.78610 58 ft 91 kts 315°
2026-05-01 12:49 37.56322 126.78190 60 ft 54 kts 315°
2026-05-01 12:49 37.56559 126.77910 58 ft 24 kts 328°
2026-05-01 12:49 37.56670 126.77758 49 ft 23 kts 311°
2026-05-01 12:49 37.56789 126.77610 54 ft 25 kts 326°
2026-05-01 12:50 37.56905 126.77655 62 ft 16 kts 46°
2026-05-01 12:50 37.56976 126.77741 63 ft 13 kts 41°
2026-05-01 12:50 37.57053 126.77832 54 ft 16 kts 44°
2026-05-01 12:50 37.57105 126.77897 54 ft 15 kts 44°
2026-05-01 12:51 37.57151 126.78002 65 ft 8 kts 114°
2026-05-01 12:51 37.57121 126.78055 56 ft 7 kts 131°
2026-05-01 12:51 37.56989 126.78225 59 ft 15 kts 135°
2026-05-01 12:52 37.56913 126.78319 58 ft 17 kts 135°
2026-05-01 12:52 37.56780 126.78486 62 ft 16 kts 135°
2026-05-01 12:52 37.56705 126.78581 63 ft 15 kts 135°
2026-05-01 12:53 37.56566 126.78755 59 ft 13 kts 134°
2026-05-01 12:53 37.56503 126.78837 64 ft 13 kts 134°
2026-05-01 12:53 37.56442 126.78914 67 ft 12 kts 135°
2026-05-01 12:54 37.56372 126.79001 64 ft 16 kts 136°
2026-05-01 12:54 37.56186 126.79233 59 ft 19 kts 135°
2026-05-01 12:54 37.56095 126.79349 66 ft 18 kts 135°
2026-05-01 12:55 37.55942 126.79581 63 ft 16 kts 105°
2026-05-01 12:55 37.55925 126.79717 62 ft 15 kts 98°
2026-05-01 12:55 37.55909 126.79846 61 ft 15 kts 99°
2026-05-01 12:56 37.55886 126.79966 59 ft 14 kts 120°
2026-05-01 12:56 37.55820 126.80057 61 ft 16 kts 134°
2026-05-01 12:56 37.55746 126.80150 60 ft 15 kts 135°
2026-05-01 12:56 37.55697 126.80235 65 ft 8 kts 92°
2026-05-01 12:57 37.55725 126.80287 67 ft 7 kts 45°
2026-05-01 12:57 37.55755 126.80325 67 ft 0 kts 45°
2026-05-01 12:57 37.55759 126.80329 67 ft 0 kts 45°